Regional Weather Roundup
Issued by NWS

Home | Current Version | Previous Version | Graphics & Text | Print | Product List | Glossary Off
Versions: 1 2 3 4 5 6 7 8 9 10 11 12 13 14 15 16 17 18 19 20 21 22 23 24 25 26 27 28 29 30 31 32 33 34 35 36 37 38 39 40 41 42 43 44 45 46 47 48 49 50

000
ASUS43 KTOP 231559
RWRKS

WEATHER ROUNDUP FOR KANSAS
NATIONAL WEATHER SERVICE GOODLAND KS
1100 AM CDT THU MAR 23 2017

NOTE:  "FAIR" INDICATES FEW OR NO CLOUDS BELOW 12,000 FEET WITH NO
SIGNIFICANT WEATHER AND/OR OBSTRUCTIONS TO VISIBILITY.

KSZ001>006-013>018-027>032-041>047-231700-
NORTHWEST KANSAS

CITY           SKY/WX    TMP DP  RH WIND       PRES   REMARKS
GOODLAND       CLOUDY    53  49  86 S23       29.69F
HAYS             N/A     62  56  80 S23G31    29.76F
HILL CITY      CLOUDY    62  58  86 S10       29.75S FOG
RUSSELL        CLOUDY    62  56  80 S29G39    29.76F
$$

KSZ061>065-074>080-084>089-231700-
SOUTHWEST KANSAS

CITY           SKY/WX    TMP DP  RH WIND       PRES   REMARKS
DODGE CITY     CLOUDY    62  56  80 S22G30    29.80R
ELKHART          N/A     66  50  56 S22         N/A
GARDEN CITY    PTSUNNY   66  56  70 S24G33    29.76S
GREAT BEND     CLOUDY    61  56  83 S24G30    29.81F
LIBERAL        PTSUNNY   68  57  68 S28       29.79F
$$

KSZ066>073-081>083-090>101-231700-
SOUTHEAST KANSAS

CITY           SKY/WX    TMP DP  RH WIND       PRES   REMARKS
CHANUTE        PTSUNNY   66  48  52 S25G32    30.03F
COFFEYVILLE    MOSUNNY   66  50  56 S18G31    30.04F
HUTCHINSON     CLOUDY    62  53  72 S28G37    29.87F
MEDICINE LODGE   N/A     61  56  83 SE14G24   29.86F
NEWTON         MOSUNNY   63  52  67 S25G33    29.91F
PARSONS        MOSUNNY   66  50  56 S17G29    30.04F
WICHITA INTL   CLOUDY    62  52  69 S23G31    29.92F
WICHITA JABRA  MOSUNNY   63  51  65 S26G32    29.93F
WINFIELD       PTSUNNY   62  50  64 SE20G30   29.98S
$$

KSZ007>012-019>026-033>040-048>060-102>105-231700-
NORTHEAST KANSAS

CITY           SKY/WX    TMP DP  RH WIND       PRES   REMARKS
CONCORDIA      CLOUDY    58  52  80 S20       29.83F
EMPORIA        PTSUNNY   63  49  60 S23G32    29.96F
LAWRENCE       MOSUNNY   64  45  49 SE23      30.00F
MANHATTAN      PTSUNNY   66  52  60 S24G31    29.90F
OLATHE IND     CLOUDY    60  43  53 SE16G26   30.03F
OLATHE EXE     SUNNY     60  43  53 S17G26    30.03F
SALINA         CLOUDY    65  54  67 S26G41    29.85F
TOPEKA BILLARD SUNNY     64  48  56 S20G31    29.97F
TOPEKA FORBES  SUNNY     66  48  52 S25       29.97F
$$




USA.gov is the U.S. government's official web portal to all federal, state and local government web resources and services.